LiveATC.Net - Listen to live air traffic control over the Internet!
Airport/ARTCC Code
Frequency Search
(e.g., 124.400, 128.75)
Site-wide search
 


Browse Feeds
Top 50 Feeds
HF Oceanic Feeds
Coverage Map
Bad Weather Areas

LiveATC FAQ
Offer LiveATC feed
Contact LiveATC.net
Press Inquiries

LiveATC on iPhone
LiveATC on Android

LiveATC Mobile
(Mobile browser)

ATC Audio Archives
Interesting Recordings

LiveATC Forums

Home Page
About LiveATC.net


Terms of Use
Privacy Policy

AIRMETs/SIGMETs

FAA Airport Status
NAS Status
Arrival Demand


Server Software By:
Icecast.org
Liquidsoap

Select an area of interest:
U.S. Feeds: Class B Airports | Class C Airports | Class D/Other Airports | ARTCC (Centers)
International Feeds: Canada | Europe | Oceania | Asia | South America | North/Central America | Africa
Misc Feeds: HF Feeds
Search by ICAO/IATA airport code:   (e.g., kbos, kjfk, lax, eham, etc.)


Currently Available Live Feeds: 3039
Status Updated: Fri Jul 01 2022 07:37:04 UTC


NOTICE

Unauthorized use prohibited. See LiveATC.net Terms of Service

North and Central America Airport Feeds

 

BGGH AFIS (Archives)
Nuuk, Greenland

Feed Status: UP
Listen in your browser - HTML5 player(in browser, HTML5)
Click here to listen with your own player(launches your MP3 player)

BGGH 010650Z AUTO 19015KT 6000NDV -SHRA FEW005/// FEW023/// BKN049/// 05/05 Q1009


Listeners: 0 out of 1157 total


MDPP App/Dep (Archives)
Puerto Plata, Dominican Republic

Feed Status: UP
Listen in your browser - HTML5 player(in browser, HTML5)
Click here to listen with your own player(launches your MP3 player)


MDPP Flight Activity (Flightaware)

Listeners: 0 out of 1157 total

Puerto Plata Approach/Departure: 119.000

MDPP Ground/Center (Archives)
Puerto Plata, Dominican Republic

Feed Status: UP
Listen in your browser - HTML5 player(in browser, HTML5)
Click here to listen with your own player(launches your MP3 player)


MDPP Flight Activity (Flightaware)

Listeners: 0 out of 1157 total

Puerto Plata Ground: 121.900
Santo Domingo Center: 124.300

MDPP Ground/Tower/Center (Archives)
Puerto Plata, Dominican Republic

Feed Status: UP
Listen in your browser - HTML5 player(in browser, HTML5)
Click here to listen with your own player(launches your MP3 player)


MDPP Flight Activity (Flightaware)

Listeners: 0 out of 1157 total

Puerto Plata Ground: 121.900
Puerto Plata Tower: 118.000
Santo Domingo Center: 124.300

MDPP Tower (Archives)
Puerto Plata, Dominican Republic

Feed Status: UP
Listen in your browser - HTML5 player(in browser, HTML5)
Click here to listen with your own player(launches your MP3 player)


MDPP Flight Activity (Flightaware)

Listeners: 0 out of 1157 total

Puerto Plata Tower: 118.000

MMAN Tower (Archives)
Monterrey, Mexico

Feed Status: UP
Listen in your browser - HTML5 player(in browser, HTML5)
Click here to listen with your own player(launches your MP3 player)


MMAN Flight Activity (Flightaware)

Listeners: 0 out of 1157 total

Monterrey Tower: 118.600

MMCU ATIS (Archives)
Chihuahua, Mexico

Feed Status: UP
Listen in your browser - HTML5 player(in browser, HTML5)
Click here to listen with your own player(launches your MP3 player)


MMCU Flight Activity (Flightaware)

Listeners: 0 out of 1157 total

Chihuahua ATIS: 127.900

MMCU Twr/App (Archives)
Chihuahua, Mexico

Feed Status: UP
Listen in your browser - HTML5 player(in browser, HTML5)
Click here to listen with your own player(launches your MP3 player)


MMCU Flight Activity (Flightaware)

Listeners: 0 out of 1157 total

Chihuahua Approach: 121.000
Chihuahua Tower: 118.400

MMGL Twr/App (Archives)
Guadalajara, Mexico

Feed Status: UP
Listen in your browser - HTML5 player(in browser, HTML5)
Click here to listen with your own player(launches your MP3 player)

MMGL 010649Z 00000KT 10SM SCT025 BKN090 BKN300 19/16 A3023 RMK 8/578

MMGL Flight Activity (Flightaware)

Listeners: 1 out of 1157 total

Guadalajara Approach: 120.800
Guadalajara Tower: 118.100

MMHO App/Dep (Archives)
Hermosillo, Mexico

Feed Status: UP
Listen in your browser - HTML5 player(in browser, HTML5)
Click here to listen with your own player(launches your MP3 player)

MMHO 010641Z 08010KT 10SM SCT040 OVC090 29/22 A2995 RMK 8/47/ OCNL LTGIC 2 QUAD

MMHO Flight Activity (Flightaware)

Listeners: 0 out of 1157 total

Hermosillo Approach/Departure: 121.400

MMHO Info (Archives)
Hermosillo, Mexico

Feed Status: UP
Listen in your browser - HTML5 player(in browser, HTML5)
Click here to listen with your own player(launches your MP3 player)

MMHO 010641Z 08010KT 10SM SCT040 OVC090 29/22 A2995 RMK 8/47/ OCNL LTGIC 2 QUAD

MMHO Flight Activity (Flightaware)

Listeners: 0 out of 1157 total

Hermosillo Info: 122.300

MMHO Tower (Archives)
Hermosillo, Mexico

Feed Status: UP
Listen in your browser - HTML5 player(in browser, HTML5)
Click here to listen with your own player(launches your MP3 player)

MMHO 010641Z 08010KT 10SM SCT040 OVC090 29/22 A2995 RMK 8/47/ OCNL LTGIC 2 QUAD

MMHO Flight Activity (Flightaware)

Listeners: 0 out of 1157 total

Hermosillo Tower: 118.700

MMHO Twr/App (Archives)
Hermosillo, Mexico

Feed Status: UP
Listen in your browser - HTML5 player(in browser, HTML5)
Click here to listen with your own player(launches your MP3 player)

MMHO 010641Z 08010KT 10SM SCT040 OVC090 29/22 A2995 RMK 8/47/ OCNL LTGIC 2 QUAD

MMHO Flight Activity (Flightaware)

Listeners: 0 out of 1157 total

Hermosillo Approach/Departure: 121.400
Hermosillo Info: 122.300
Hermosillo Tower: 118.700

MMLP Twr/App (Archives)
La Paz, Mexico

Feed Status: UP
Listen in your browser - HTML5 player(in browser, HTML5)
Click here to listen with your own player(launches your MP3 player)


MMLP Flight Activity (Flightaware)

Listeners: 0 out of 1157 total

La Paz Approach: 120.600
La Paz Tower: 118.100

MMMD App/Dep (Archives)
Merida, Mexico

Feed Status: UP
Listen in your browser - HTML5 player(in browser, HTML5)
Click here to listen with your own player(launches your MP3 player)

MMMD 010645Z 00000KT 6SM BKN015 BKN300 26/24 A3002 RMK 8/508

MMMD Flight Activity (Flightaware)

Listeners: 0 out of 1157 total

Merida Approach: 121.200

MMMD Merida Center 125.2/128.2 (Archives)
Merida, Mexico

Feed Status: UP
Listen in your browser - HTML5 player(in browser, HTML5)
Click here to listen with your own player(launches your MP3 player)

MMMD 010645Z 00000KT 6SM BKN015 BKN300 26/24 A3002 RMK 8/508

MMMD Flight Activity (Flightaware)

Listeners: 0 out of 1157 total

Merida Center: 125.200
Merida Center: 128.200

MMMD Merida Center 125.8/123.75 (Archives)
Merida, Mexico

Feed Status: UP
Listen in your browser - HTML5 player(in browser, HTML5)
Click here to listen with your own player(launches your MP3 player)

MMMD 010645Z 00000KT 6SM BKN015 BKN300 26/24 A3002 RMK 8/508

MMMD Flight Activity (Flightaware)

Listeners: 0 out of 1157 total

Merida Center: 125.800
Merida Center: 123.750

MMMD Tower (Archives)
Merida, Mexico

Feed Status: UP
Listen in your browser - HTML5 player(in browser, HTML5)
Click here to listen with your own player(launches your MP3 player)

MMMD 010645Z 00000KT 6SM BKN015 BKN300 26/24 A3002 RMK 8/508

MMMD Flight Activity (Flightaware)

Listeners: 0 out of 1157 total

Merida Tower: 118.300

MMMM Tower
Morelia, Mexico

Feed Status: DOWN
Offline since: 2022-06-02 23:54:39 UTC

MMMM 010704Z 10010KT 3SM TSRA SCT025CB BKN080 OVC300 15/15 A3030 RMK 8/963 -RAE00 TSRAB01 FRQ LTGCC

Morelia Tower: 118.500

MMMX Aeromexico Ops (Archives)
Mexico City, Mexico

Feed Status: UP
Listen in your browser - HTML5 player(in browser, HTML5)
Click here to listen with your own player(launches your MP3 player)

MMMX 010658Z 28005KT 10SM FEW020 SCT100 BKN200 18/11 A3037 NOSIG RMK 8/472 HZY RAE55 OCNL DROPS

MMMX Flight Activity (Flightaware)

Listeners: 0 out of 1157 total

Aeromexico Ops: 131.000

MMMX Approach (Archives)
Mexico City, Mexico

Feed Status: UP
Listen in your browser - HTML5 player(in browser, HTML5)
Click here to listen with your own player(launches your MP3 player)

MMMX 010658Z 28005KT 10SM FEW020 SCT100 BKN200 18/11 A3037 NOSIG RMK 8/472 HZY RAE55 OCNL DROPS

MMMX Flight Activity (Flightaware)

Listeners: 1 out of 1157 total

Mexico City Approach: 121.200

MMMX Approach (CVJ/PBC) (Archives)
Mexico City, Mexico

Feed Status: UP
Listen in your browser - HTML5 player(in browser, HTML5)
Click here to listen with your own player(launches your MP3 player)

MMMX 010658Z 28005KT 10SM FEW020 SCT100 BKN200 18/11 A3037 NOSIG RMK 8/472 HZY RAE55 OCNL DROPS

MMMX Flight Activity (Flightaware)

Listeners: 0 out of 1157 total

Mexico City Approach (CVJ/PBC): 119.250

MMMX Approach (Final) (Archives)
Mexico City, Mexico

Feed Status: UP
Listen in your browser - HTML5 player(in browser, HTML5)
Click here to listen with your own player(launches your MP3 player)

MMMX 010658Z 28005KT 10SM FEW020 SCT100 BKN200 18/11 A3037 NOSIG RMK 8/472 HZY RAE55 OCNL DROPS

MMMX Flight Activity (Flightaware)

Listeners: 0 out of 1157 total

Mexico City Approach (Final): 119.750

MMMX Arrival (North) (Archives)
Mexico City, Mexico

Feed Status: UP
Listen in your browser - HTML5 player(in browser, HTML5)
Click here to listen with your own player(launches your MP3 player)

MMMX 010658Z 28005KT 10SM FEW020 SCT100 BKN200 18/11 A3037 NOSIG RMK 8/472 HZY RAE55 OCNL DROPS

MMMX Flight Activity (Flightaware)

Listeners: 0 out of 1157 total

Mexico City Arrival (North): 129.650

MMMX Arrival (North/South) (Archives)
Mexico City, Mexico

Feed Status: UP
Listen in your browser - HTML5 player(in browser, HTML5)
Click here to listen with your own player(launches your MP3 player)

MMMX 010658Z 28005KT 10SM FEW020 SCT100 BKN200 18/11 A3037 NOSIG RMK 8/472 HZY RAE55 OCNL DROPS

MMMX Flight Activity (Flightaware)

Listeners: 0 out of 1157 total

Mexico City Arrival (North): 129.650
Mexico City Arrival (South): 119.100

MMMX Arrival (South) (Archives)
Mexico City, Mexico

Feed Status: UP
Listen in your browser - HTML5 player(in browser, HTML5)
Click here to listen with your own player(launches your MP3 player)

MMMX 010658Z 28005KT 10SM FEW020 SCT100 BKN200 18/11 A3037 NOSIG RMK 8/472 HZY RAE55 OCNL DROPS

MMMX Flight Activity (Flightaware)

Listeners: 0 out of 1157 total

Mexico City Arrival (South): 119.100

MMMX ATIS (Archives)
Mexico City, Mexico

Feed Status: UP
Listen in your browser - HTML5 player(in browser, HTML5)
Click here to listen with your own player(launches your MP3 player)

MMMX 010658Z 28005KT 10SM FEW020 SCT100 BKN200 18/11 A3037 NOSIG RMK 8/472 HZY RAE55 OCNL DROPS

MMMX Flight Activity (Flightaware)

Listeners: 0 out of 1157 total

Mexico City ATIS: 127.650

MMMX Center (Southeast) (Archives)
Mexico City, Mexico

Feed Status: UP
Listen in your browser - HTML5 player(in browser, HTML5)
Click here to listen with your own player(launches your MP3 player)

MMMX 010658Z 28005KT 10SM FEW020 SCT100 BKN200 18/11 A3037 NOSIG RMK 8/472 HZY RAE55 OCNL DROPS

MMMX Flight Activity (Flightaware)

Listeners: 0 out of 1157 total

Mexico Center (Southeast): 128.250

MMMX Center (West) (Archives)
Mexico City, Mexico

Feed Status: UP
Listen in your browser - HTML5 player(in browser, HTML5)
Click here to listen with your own player(launches your MP3 player)

MMMX 010658Z 28005KT 10SM FEW020 SCT100 BKN200 18/11 A3037 NOSIG RMK 8/472 HZY RAE55 OCNL DROPS

MMMX Flight Activity (Flightaware)

Listeners: 0 out of 1157 total

Mexico Center (West): 125.100

MMMX Clearance Delivery (Archives)
Mexico City, Mexico

Feed Status: UP
Listen in your browser - HTML5 player(in browser, HTML5)
Click here to listen with your own player(launches your MP3 player)

MMMX 010658Z 28005KT 10SM FEW020 SCT100 BKN200 18/11 A3037 NOSIG RMK 8/472 HZY RAE55 OCNL DROPS

MMMX Flight Activity (Flightaware)

Listeners: 0 out of 1157 total

Mexico City Clearance Delivery: 122.100

MMMX Departure (North) (Archives)
Mexico City, Mexico

Feed Status: UP
Listen in your browser - HTML5 player(in browser, HTML5)
Click here to listen with your own player(launches your MP3 player)

MMMX 010658Z 28005KT 10SM FEW020 SCT100 BKN200 18/11 A3037 NOSIG RMK 8/472 HZY RAE55 OCNL DROPS

MMMX Flight Activity (Flightaware)

Listeners: 0 out of 1157 total

Mexico City Departure (North): 120.500

MMMX Departure (South) (Archives)
Mexico City, Mexico

Feed Status: UP
Listen in your browser - HTML5 player(in browser, HTML5)
Click here to listen with your own player(launches your MP3 player)

MMMX 010658Z 28005KT 10SM FEW020 SCT100 BKN200 18/11 A3037 NOSIG RMK 8/472 HZY RAE55 OCNL DROPS

MMMX Flight Activity (Flightaware)

Listeners: 0 out of 1157 total

Mexico City Departure (South): 129.100

MMMX Ground (North) (Archives)
Mexico City, Mexico

Feed Status: UP
Listen in your browser - HTML5 player(in browser, HTML5)
Click here to listen with your own player(launches your MP3 player)

MMMX 010658Z 28005KT 10SM FEW020 SCT100 BKN200 18/11 A3037 NOSIG RMK 8/472 HZY RAE55 OCNL DROPS

MMMX Flight Activity (Flightaware)

Listeners: 0 out of 1157 total

Mexico City Ground (North): 121.850

MMMX Ground (North/South) (Archives)
Mexico City, Mexico

Feed Status: UP
Listen in your browser - HTML5 player(in browser, HTML5)
Click here to listen with your own player(launches your MP3 player)

MMMX 010658Z 28005KT 10SM FEW020 SCT100 BKN200 18/11 A3037 NOSIG RMK 8/472 HZY RAE55 OCNL DROPS

MMMX Flight Activity (Flightaware)

Listeners: 0 out of 1157 total

Mexico City Ground (North): 121.850
Mexico City Ground (South): 121.000

MMMX Ground (South) (Archives)
Mexico City, Mexico

Feed Status: UP
Listen in your browser - HTML5 player(in browser, HTML5)
Click here to listen with your own player(launches your MP3 player)

MMMX 010658Z 28005KT 10SM FEW020 SCT100 BKN200 18/11 A3037 NOSIG RMK 8/472 HZY RAE55 OCNL DROPS

MMMX Flight Activity (Flightaware)

Listeners: 0 out of 1157 total

Mexico City Ground (South): 121.000

MMMX Mexico Center North (Archives)
Mexico City, Mexico

Feed Status: UP
Listen in your browser - HTML5 player(in browser, HTML5)
Click here to listen with your own player(launches your MP3 player)

MMMX 010658Z 28005KT 10SM FEW020 SCT100 BKN200 18/11 A3037 NOSIG RMK 8/472 HZY RAE55 OCNL DROPS

MMMX Flight Activity (Flightaware)

Listeners: 0 out of 1157 total

Mexico Center North: 133.100

MMMX Tower (Archives)
Mexico City, Mexico

Feed Status: UP
Listen in your browser - HTML5 player(in browser, HTML5)
Click here to listen with your own player(launches your MP3 player)

MMMX 010658Z 28005KT 10SM FEW020 SCT100 BKN200 18/11 A3037 NOSIG RMK 8/472 HZY RAE55 OCNL DROPS

MMMX Flight Activity (Flightaware)

Listeners: 0 out of 1157 total

Mexico City Tower: 118.550

MMMX Tower (Helicopters) (Archives)
Mexico City, Mexico

Feed Status: UP
Listen in your browser - HTML5 player(in browser, HTML5)
Click here to listen with your own player(launches your MP3 player)

MMMX 010658Z 28005KT 10SM FEW020 SCT100 BKN200 18/11 A3037 NOSIG RMK 8/472 HZY RAE55 OCNL DROPS

MMMX Flight Activity (Flightaware)

Listeners: 0 out of 1157 total

Mexico City Tower (Helicopters): 118.150

MMMX Twr/App #1 (Archives)
Mexico City, Mexico

Feed Status: UP
Listen in your browser - HTML5 player(in browser, HTML5)
Click here to listen with your own player(launches your MP3 player)

MMMX 010658Z 28005KT 10SM FEW020 SCT100 BKN200 18/11 A3037 NOSIG RMK 8/472 HZY RAE55 OCNL DROPS

MMMX Flight Activity (Flightaware)

Listeners: 3 out of 1157 total

Mexico City Approach: 121.200
Mexico City Arrival (North): 129.650
Mexico City Arrival (South): 119.100
Mexico City Final Approach: 119.750
Mexico City Tower: 118.550

MMMX Twr/App #2 (Archives)
Mexico City, Mexico

Feed Status: UP
Listen in your browser - HTML5 player(in browser, HTML5)
Click here to listen with your own player(launches your MP3 player)

MMMX 010658Z 28005KT 10SM FEW020 SCT100 BKN200 18/11 A3037 NOSIG RMK 8/472 HZY RAE55 OCNL DROPS

MMMX Flight Activity (Flightaware)

Listeners: 3 out of 1157 total

Mexico City Approach: 121.200

MMMX UNICOM (Archives)
Mexico City, Mexico

Feed Status: UP
Listen in your browser - HTML5 player(in browser, HTML5)
Click here to listen with your own player(launches your MP3 player)

MMMX 010658Z 28005KT 10SM FEW020 SCT100 BKN200 18/11 A3037 NOSIG RMK 8/472 HZY RAE55 OCNL DROPS

MMMX Flight Activity (Flightaware)

Listeners: 0 out of 1157 total

Mexico City UNICOM: 122.500

MMMX Volaris Ops (Archives)
Mexico City, Mexico

Feed Status: UP
Listen in your browser - HTML5 player(in browser, HTML5)
Click here to listen with your own player(launches your MP3 player)

MMMX 010658Z 28005KT 10SM FEW020 SCT100 BKN200 18/11 A3037 NOSIG RMK 8/472 HZY RAE55 OCNL DROPS

MMMX Flight Activity (Flightaware)

Listeners: 0 out of 1157 total

Volaris Ops: 130.375

MMMY Tower/Approach (Archives)
Monterrey, Mexico

Feed Status: UP
Listen in your browser - HTML5 player(in browser, HTML5)
Click here to listen with your own player(launches your MP3 player)

MMMY 010640Z 00000KT 10SM SKC 24/20 A2996

MMMY Flight Activity (Flightaware)

Listeners: 0 out of 1157 total

Monterrey Approach/Departure: 119.750
Monterrey Tower: 118.100

MMPC CTAF (Archives)
Pachuca, Mexico

Feed Status: UP
Listen in your browser - HTML5 player(in browser, HTML5)
Click here to listen with your own player(launches your MP3 player)

MMPC Flight Activity (Flightaware)

Listeners: 0 out of 1157 total

Pachuca CTAF/AFIS: 122.900

MMQT Tower/App
Queretaro, Mexico

Feed Status: DOWN
Offline since: 2021-10-10 15:21:05 UTC

MMQT 010641Z 00000KT 8SM SKC 17/12 A3036

Queretaro Approach: 127.200
Queretaro Tower: 118.950

MMMX Departure (North) (Archives)
Santa Lucia, Mexico

Feed Status: UP
Listen in your browser - HTML5 player(in browser, HTML5)
Click here to listen with your own player(launches your MP3 player)

MMMX 010658Z 28005KT 10SM FEW020 SCT100 BKN200 18/11 A3037 NOSIG RMK 8/472 HZY RAE55 OCNL DROPS

MMMX Flight Activity (Flightaware)

Listeners: 0 out of 1157 total

Mexico City Departure (North): 120.500

MMSM Approach (119.0) (Archives)
Santa Lucia, Mexico

Feed Status: UP
Listen in your browser - HTML5 player(in browser, HTML5)
Click here to listen with your own player(launches your MP3 player)

MMMX 010658Z 28005KT 10SM FEW020 SCT100 BKN200 18/11 A3037 NOSIG RMK 8/472 HZY RAE55 OCNL DROPS

MMMX Flight Activity (Flightaware)

Listeners: 0 out of 1157 total

Santa Lucia Approach: 119.000

MMSM Approach (128.85) (Archives)
Santa Lucia, Mexico

Feed Status: UP
Listen in your browser - HTML5 player(in browser, HTML5)
Click here to listen with your own player(launches your MP3 player)

MMMX 010658Z 28005KT 10SM FEW020 SCT100 BKN200 18/11 A3037 NOSIG RMK 8/472 HZY RAE55 OCNL DROPS

MMMX Flight Activity (Flightaware)

Listeners: 0 out of 1157 total

Santa Lucia Approach: 128.850

MMSM ATIS (Archives)
Santa Lucia, Mexico

Feed Status: UP
Listen in your browser - HTML5 player(in browser, HTML5)
Click here to listen with your own player(launches your MP3 player)

MMMX 010658Z 28005KT 10SM FEW020 SCT100 BKN200 18/11 A3037 NOSIG RMK 8/472 HZY RAE55 OCNL DROPS

MMMX Flight Activity (Flightaware)

Listeners: 0 out of 1157 total

Santa Lucia ATIS:

MMSM Clearance Delivery (Archives)
Santa Lucia, Mexico

Feed Status: UP
Listen in your browser - HTML5 player(in browser, HTML5)
Click here to listen with your own player(launches your MP3 player)

MMMX 010658Z 28005KT 10SM FEW020 SCT100 BKN200 18/11 A3037 NOSIG RMK 8/472 HZY RAE55 OCNL DROPS

MMMX Flight Activity (Flightaware)

Listeners: 0 out of 1157 total

Santa Lucia Clearance Delivery: 121.900

MMSM Ground (Archives)
Santa Lucia, Mexico

Feed Status: UP
Listen in your browser - HTML5 player(in browser, HTML5)
Click here to listen with your own player(launches your MP3 player)

MMMX 010658Z 28005KT 10SM FEW020 SCT100 BKN200 18/11 A3037 NOSIG RMK 8/472 HZY RAE55 OCNL DROPS

MMMX Flight Activity (Flightaware)

Listeners: 0 out of 1157 total

Santa Lucia Ground: 121.800

MMSM Tower (Archives)
Santa Lucia, Mexico

Feed Status: UP
Listen in your browser - HTML5 player(in browser, HTML5)
Click here to listen with your own player(launches your MP3 player)

MMMX 010658Z 28005KT 10SM FEW020 SCT100 BKN200 18/11 A3037 NOSIG RMK 8/472 HZY RAE55 OCNL DROPS

MMMX Flight Activity (Flightaware)

Listeners: 0 out of 1157 total

Santa Lucia Tower: 118.300

MMTC Twr/App/Center (Archives)
Torreon, Mexico

Feed Status: UP
Listen in your browser - HTML5 player(in browser, HTML5)
Click here to listen with your own player(launches your MP3 player)


MMTC Flight Activity (Flightaware)

Listeners: 0 out of 1157 total

Mazatlan Center: 124.200
Mazatlan Center: 124.400
Mazatlan Center: 128.000
Mexico Center: 123.900
Monterrey Center: 125.600
Monterrey Center: 125.425
Monterrey Center: 127.400
Torreon Approach: 119.500
Torreon Tower: 118.500

MMTJ Approach (Archives)
Tijuana, Mexico

Feed Status: UP
Listen in your browser - HTML5 player(in browser, HTML5)
Click here to listen with your own player(launches your MP3 player)

MMTJ 010640Z 26005KT 7SM SKC 18/18 A3002 RMK HZY

MMTJ Flight Activity (Flightaware)

Listeners: 1 out of 1157 total

Tijuana Approach: 120.300

MMTJ Twr/Ramp (Archives)
Tijuana, Mexico

Feed Status: UP
Listen in your browser - HTML5 player(in browser, HTML5)
Click here to listen with your own player(launches your MP3 player)

MMTJ 010640Z 26005KT 7SM SKC 18/18 A3002 RMK HZY

MMTJ Flight Activity (Flightaware)

Listeners: 1 out of 1157 total

Tijuana Ramp: 126.100
Tijuana Tower: 118.100

MUFH Havana FIR (App/Center) (Archives)
Havana, Cuba

Feed Status: UP
Listen in your browser - HTML5 player(in browser, HTML5)
Click here to listen with your own player(launches your MP3 player)

MUFH Flight Activity (Flightaware)

Listeners: 0 out of 1157 total

Hava Approach: 120.300
Havana Center: 120.250
Havana Center: 123.700
Havana Center: 124.550
Havana Center: 133.700
Havana Center: 135.100

TBPB Gnd/Twr/Radar/Center
Bridgetown, Barbados

Feed Status: DOWN
Offline since: 2022-07-01 03:00:06 UTC

TBPB 010700Z 09016G32KT 6000 SHRA SCT018 BKN042 25/23 Q1011 NOSIG

Adams Approach/Departure: 129.350
Adams Approach/Departure: 128.850
Adams Ground: 121.900
Adams Tower: 118.700
Piarco Center: 123.700

TNCM App/Dep (Archives)
Philipsburg, Saint Martin

Feed Status: UP
Listen in your browser - HTML5 player(in browser, HTML5)
Click here to listen with your own player(launches your MP3 player)

TNCM 010700Z 06015KT 9999 FEW020 27/22 Q1016

TNCM Flight Activity (Flightaware)

Listeners: 0 out of 1157 total

Juliana Approach (only when busy): 128.950

TNCM Clearance Delivery (Archives)
Philipsburg, Saint Martin

Feed Status: UP
Listen in your browser - HTML5 player(in browser, HTML5)
Click here to listen with your own player(launches your MP3 player)

TNCM 010700Z 06015KT 9999 FEW020 27/22 Q1016

TNCM Flight Activity (Flightaware)

Listeners: 0 out of 1157 total

Juliana Clearance Delivery: 121.650

TNCM Tower (Archives)
Philipsburg, Saint Martin

Feed Status: UP
Listen in your browser - HTML5 player(in browser, HTML5)
Click here to listen with your own player(launches your MP3 player)

TNCM 010700Z 06015KT 9999 FEW020 27/22 Q1016

TNCM Flight Activity (Flightaware)

Listeners: 0 out of 1157 total

Juliana Tower (TNCM): 118.700

TQPF Tower (Archives)
The Valley, Anguilla

Feed Status: UP
Listen in your browser - HTML5 player(in browser, HTML5)
Click here to listen with your own player(launches your MP3 player)

TNCM 010700Z 06015KT 9999 FEW020 27/22 Q1016

TNCM Flight Activity (Flightaware)

Listeners: 0 out of 1157 total

Anguilla Tower: 118.500

TXKF ATIS (Archives)
Hamilton, Bermuda

Feed Status: UP
Listen in your browser - HTML5 player(in browser, HTML5)
Click here to listen with your own player(launches your MP3 player)

TXKF 010655Z 02006KT 9999 FEW023 24/19 Q1022

TXKF Flight Activity (Flightaware)

Listeners: 0 out of 1157 total

Bermuda ATIS: 119.600

TXKF Del/Gnd (Archives)
Hamilton, Bermuda

Feed Status: UP
Listen in your browser - HTML5 player(in browser, HTML5)
Click here to listen with your own player(launches your MP3 player)

TXKF 010655Z 02006KT 9999 FEW023 24/19 Q1022

TXKF Flight Activity (Flightaware)

Listeners: 0 out of 1157 total

Bermuda Ground/Clearance: 124.500

TXKF Del/Gnd/Twr/CTAF (Archives)
Hamilton, Bermuda

Feed Status: UP
Listen in your browser - HTML5 player(in browser, HTML5)
Click here to listen with your own player(launches your MP3 player)

TXKF 010655Z 02006KT 9999 FEW023 24/19 Q1022

TXKF Flight Activity (Flightaware)

Listeners: 0 out of 1157 total

Bermuda CTAF: 122.800
Bermuda Ground/Clearance: 124.500
Bermuda Tower: 118.100

TXKF Tower (Archives)
Hamilton, Bermuda

Feed Status: UP
Listen in your browser - HTML5 player(in browser, HTML5)
Click here to listen with your own player(launches your MP3 player)

TXKF 010655Z 02006KT 9999 FEW023 24/19 Q1022

TXKF Flight Activity (Flightaware)

Listeners: 0 out of 1157 total

Bermuda Tower: 118.100

ZNY Sector 81 (Bermuda)/App (Archives)
Hamilton, Bermuda

Feed Status: UP
Listen in your browser - HTML5 player(in browser, HTML5)
Click here to listen with your own player(launches your MP3 player)

TXKF 010655Z 02006KT 9999 FEW023 24/19 Q1022

TXKF Flight Activity (Flightaware)

Listeners: 0 out of 1157 total

New York Approach: 119.100
New York Center (BDA81 Bermuda Sector): 128.500

TNCE Info (Archives)
Oranjestad, Sint Eustatius

Feed Status: UP
Listen in your browser - HTML5 player(in browser, HTML5)
Click here to listen with your own player(launches your MP3 player)

TNCE 010655Z AUTO 06019KT //// // ///////// 27/23 Q1015 RE//

TNCE Flight Activity (Flightaware)

Listeners: 0 out of 1157 total

Statia Info: 118.100

TNCS Info (Archives)
Hell's Gate, Saba

Feed Status: UP
Listen in your browser - HTML5 player(in browser, HTML5)
Click here to listen with your own player(launches your MP3 player)

TNCS Flight Activity (Flightaware)

Listeners: 0 out of 1157 total

Saba Tower: 118.250

MHLC Gnd/Twr/Center (Archives)
La Ceiba, Honduras

Feed Status: UP
Listen in your browser - HTML5 player(in browser, HTML5)
Click here to listen with your own player(launches your MP3 player)


MHLC Flight Activity (Flightaware)

Listeners: 0 out of 1157 total

CENAMER: 123.900
CENAMER: 124.300
Goloson Ground: 121.900
Goloson Tower: 118.500
La Ceiba Radio: 128.900

MHLM Gnd/Twr/App
San Pedro Sula, Honduras

Feed Status: DOWN
Offline since: 2022-04-15 13:45:40 UTC

MHLM 010700Z 00000KT 9999 FEW026 BKN200 24/24 Q1014 A2995 NOSIG

La Mesa Ground: 121.900
La Mesa Tower: 118.200
San Pedro Sula Approach: 119.700

MHRO Gnd/Twr/App/Center
Roatan, Honduras

Feed Status: DOWN
Offline since: 2022-02-24 17:14:22 UTC


CENAMER (Center): 124.300
La Ceiba Radio: 128.900
Roatan Ground: 121.600
Roatan Tower: 118.100

MHTG ATIS
Tegucigalpa, Honduras

Feed Status: DOWN
Offline since: 2022-06-29 12:11:06 UTC

MHTG 010700Z 36006KT 9999 FEW020 SCT030 20/18 Q1021 A3015 NOSIG

Toncontin ATIS: 127.750

MHTG Gnd/Twr/App/Ctr/Ops (Archives)
Tegucigalpa, Honduras

Feed Status: UP
Listen in your browser - HTML5 player(in browser, HTML5)
Click here to listen with your own player(launches your MP3 player)

MHTG 010700Z 36006KT 9999 FEW020 SCT030 20/18 Q1021 A3015 NOSIG

MHTG Flight Activity (Flightaware)

Listeners: 0 out of 1157 total

American Airlines Ops: 130.700
ARINC ACARS: 131.550
Cenamer Center: 123.900
Cenamer Center: 124.300
Cenamer Center: 124.100
CMP Ops: 129.925
Continental Airlines Ops: 129.925
FAH Ground: 122.900
Palmerola (MHPR) Tower: 118.900
Taca Ops: 131.300
Taca Ops Sal: 130.300
Tecnologias Unidas: 133.000
Tegucigalpa RDO: 126.700
Toncontin Approach: 119.100
Toncontin Ground: 121.900
Toncontin Tower: 118.700

MPMG Ground
Panama City, Panama

Feed Status: DOWN
Offline since: 2022-06-17 22:46:22 UTC

MPMG 010700Z AUTO 26004KT //// R01///// // ///////// 25/25 Q1009

Gelabert Ground: 121.700

MPMG Tower
Panama City, Panama

Feed Status: DOWN
Offline since: 2022-06-17 22:46:22 UTC

MPMG 010700Z AUTO 26004KT //// R01///// // ///////// 25/25 Q1009

Gelabert Tower: 118.300

Panama App/Dep #2 (Archives)
Panama City, Panama

Feed Status: UP
Listen in your browser - HTML5 player(in browser, HTML5)
Click here to listen with your own player(launches your MP3 player)


MPPA Flight Activity (Flightaware)

Listeners: 0 out of 1157 total

Panama Approach: 119.700
Panama Departure: 119.200

Panama App/Dep #3
Panama City, Panama

Feed Status: DOWN
Offline since: 2022-06-20 10:58:23 UTC

MPTO 010700Z 26004KT 9999 SCT018CB 25/23 Q1010 NOSIG

Panama Approach: 119.700
Panama Departure: 119.200

Panama Approach #1
Panama City, Panama

Feed Status: DOWN
Offline since: 2022-06-17 22:46:22 UTC

MPMG 010700Z AUTO 26004KT //// R01///// // ///////// 25/25 Q1009

Panama Approach: 119.700

Panama Center #1
Panama City, Panama

Feed Status: DOWN
Offline since: 2021-11-29 18:41:05 UTC

MPMG 010700Z AUTO 26004KT //// R01///// // ///////// 25/25 Q1009

Panama Center: 134.900
Panama Center (North): 133.300
Panama Center (North): 125.500
Panama Center (South): 123.300
Panama Center (South): 133.000

Panama Center #2 (Archives)
Panama City, Panama

Feed Status: UP
Listen in your browser - HTML5 player(in browser, HTML5)
Click here to listen with your own player(launches your MP3 player)


MPPA Flight Activity (Flightaware)

Listeners: 0 out of 1157 total

Panama Center: 134.900
Panama Center (North): 125.500
Panama Center (North): 133.300
Panama Center (South): 123.300
Panama Center (South): 133.000

Panama Radio #1
Panama City, Panama

Feed Status: DOWN
Offline since: 2021-12-17 13:13:39 UTC

MPMG 010700Z AUTO 26004KT //// R01///// // ///////// 25/25 Q1009

Panama Radio: 123.600
Panama Radio: 126.900

Panama Traffic Advisory #1
Panama City, Panama

Feed Status: DOWN
Offline since: 2022-06-17 22:46:22 UTC

MPMG 010700Z AUTO 26004KT //// R01///// // ///////// 25/25 Q1009

Panama Traffic Advisory: 121.200

MPPA Ground (Archives)
Panama City, Panama

Feed Status: UP
Listen in your browser - HTML5 player(in browser, HTML5)
Click here to listen with your own player(launches your MP3 player)


MPPA Flight Activity (Flightaware)

Listeners: 0 out of 1157 total

Pacifico Ground: 121.100

MPPA Ground/Tower (Archives)
Panama City, Panama

Feed Status: UP
Listen in your browser - HTML5 player(in browser, HTML5)
Click here to listen with your own player(launches your MP3 player)


MPPA Flight Activity (Flightaware)

Listeners: 0 out of 1157 total

Pacifico Ground: 121.100
Pacifico Tower: 118.900

MPPA Tower (Archives)
Panama City, Panama

Feed Status: UP
Listen in your browser - HTML5 player(in browser, HTML5)
Click here to listen with your own player(launches your MP3 player)


MPPA Flight Activity (Flightaware)

Listeners: 0 out of 1157 total

Pacifico Tower: 118.900

Panama App/Dep #2 (Archives)
Panama City, Panama

Feed Status: UP
Listen in your browser - HTML5 player(in browser, HTML5)
Click here to listen with your own player(launches your MP3 player)


MPPA Flight Activity (Flightaware)

Listeners: 0 out of 1157 total

Panama Approach: 119.700
Panama Departure: 119.200

Panama App/Dep #3
Panama City, Panama

Feed Status: DOWN
Offline since: 2022-06-20 10:58:23 UTC

MPTO 010700Z 26004KT 9999 SCT018CB 25/23 Q1010 NOSIG

Panama Approach: 119.700
Panama Departure: 119.200

Panama Approach #1
Panama City, Panama

Feed Status: DOWN
Offline since: 2022-06-17 22:46:22 UTC

MPMG 010700Z AUTO 26004KT //// R01///// // ///////// 25/25 Q1009

Panama Approach: 119.700

Panama Center #1
Panama City, Panama

Feed Status: DOWN
Offline since: 2021-11-29 18:41:05 UTC

MPMG 010700Z AUTO 26004KT //// R01///// // ///////// 25/25 Q1009

Panama Center: 134.900
Panama Center (North): 133.300
Panama Center (North): 125.500
Panama Center (South): 123.300
Panama Center (South): 133.000

Panama Center #2 (Archives)
Panama City, Panama

Feed Status: UP
Listen in your browser - HTML5 player(in browser, HTML5)
Click here to listen with your own player(launches your MP3 player)


MPPA Flight Activity (Flightaware)

Listeners: 0 out of 1157 total

Panama Center: 134.900
Panama Center (North): 125.500
Panama Center (North): 133.300
Panama Center (South): 123.300
Panama Center (South): 133.000

Panama Radio #1
Panama City, Panama

Feed Status: DOWN
Offline since: 2021-12-17 13:13:39 UTC

MPMG 010700Z AUTO 26004KT //// R01///// // ///////// 25/25 Q1009

Panama Radio: 123.600
Panama Radio: 126.900

Panama Traffic Advisory #1
Panama City, Panama

Feed Status: DOWN
Offline since: 2022-06-17 22:46:22 UTC

MPMG 010700Z AUTO 26004KT //// R01///// // ///////// 25/25 Q1009

Panama Traffic Advisory: 121.200

MPTO ATIS
Panama City, Panama

Feed Status: DOWN
Offline since: 2022-04-27 11:11:23 UTC

MPTO 010700Z 26004KT 9999 SCT018CB 25/23 Q1010 NOSIG

Panama ATIS: 127.700

MPTO Clearance Delivery
Panama City, Panama

Feed Status: DOWN
Offline since: 2022-04-27 11:11:23 UTC

MPTO 010700Z 26004KT 9999 SCT018CB 25/23 Q1010 NOSIG

Panama Clearance Delivery: 129.800

MPTO Del/Ground (Archives)
Panama City, Panama

Feed Status: UP
Listen in your browser - HTML5 player(in browser, HTML5)
Click here to listen with your own player(launches your MP3 player)

MPTO 010700Z 26004KT 9999 SCT018CB 25/23 Q1010 NOSIG

MPTO Flight Activity (Flightaware)

Listeners: 0 out of 1157 total

Panama Clearance Delivery: 129.800
Panama Ground: 121.900

MPTO Ground (Archives)
Panama City, Panama

Feed Status: UP
Listen in your browser - HTML5 player(in browser, HTML5)
Click here to listen with your own player(launches your MP3 player)

MPTO 010700Z 26004KT 9999 SCT018CB 25/23 Q1010 NOSIG

MPTO Flight Activity (Flightaware)

Listeners: 0 out of 1157 total

Panama Ground: 121.900

MPTO Ground/Tower (Archives)
Panama City, Panama

Feed Status: UP
Listen in your browser - HTML5 player(in browser, HTML5)
Click here to listen with your own player(launches your MP3 player)

MPTO 010700Z 26004KT 9999 SCT018CB 25/23 Q1010 NOSIG

MPTO Flight Activity (Flightaware)

Listeners: 0 out of 1157 total

Panama Ground: 121.900
Panama Tower: 118.100

MPTO Tower (Archives)
Panama City, Panama

Feed Status: UP
Listen in your browser - HTML5 player(in browser, HTML5)
Click here to listen with your own player(launches your MP3 player)

MPTO 010700Z 26004KT 9999 SCT018CB 25/23 Q1010 NOSIG

MPTO Flight Activity (Flightaware)

Listeners: 0 out of 1157 total

Panama Tower: 118.100

Panama App/Dep #2 (Archives)
Panama City, Panama

Feed Status: UP
Listen in your browser - HTML5 player(in browser, HTML5)
Click here to listen with your own player(launches your MP3 player)


MPPA Flight Activity (Flightaware)

Listeners: 0 out of 1157 total

Panama Approach: 119.700
Panama Departure: 119.200

Panama App/Dep #3
Panama City, Panama

Feed Status: DOWN
Offline since: 2022-06-20 10:58:23 UTC

MPTO 010700Z 26004KT 9999 SCT018CB 25/23 Q1010 NOSIG

Panama Approach: 119.700
Panama Departure: 119.200

Panama Approach #1
Panama City, Panama

Feed Status: DOWN
Offline since: 2022-06-17 22:46:22 UTC

MPMG 010700Z AUTO 26004KT //// R01///// // ///////// 25/25 Q1009

Panama Approach: 119.700

Panama Center #1
Panama City, Panama

Feed Status: DOWN
Offline since: 2021-11-29 18:41:05 UTC

MPMG 010700Z AUTO 26004KT //// R01///// // ///////// 25/25 Q1009

Panama Center: 134.900
Panama Center (North): 133.300
Panama Center (North): 125.500
Panama Center (South): 123.300
Panama Center (South): 133.000

Panama Center #2 (Archives)
Panama City, Panama

Feed Status: UP
Listen in your browser - HTML5 player(in browser, HTML5)
Click here to listen with your own player(launches your MP3 player)


MPPA Flight Activity (Flightaware)

Listeners: 0 out of 1157 total

Panama Center: 134.900
Panama Center (North): 125.500
Panama Center (North): 133.300
Panama Center (South): 123.300
Panama Center (South): 133.000

Panama Radio #1
Panama City, Panama

Feed Status: DOWN
Offline since: 2021-12-17 13:13:39 UTC

MPMG 010700Z AUTO 26004KT //// R01///// // ///////// 25/25 Q1009

Panama Radio: 123.600
Panama Radio: 126.900

Panama Traffic Advisory #1
Panama City, Panama

Feed Status: DOWN
Offline since: 2022-06-17 22:46:22 UTC

MPMG 010700Z AUTO 26004KT //// R01///// // ///////// 25/25 Q1009

Panama Traffic Advisory: 121.200

CENAMER/Panama ACC (Archives)
San Jose, Costa Rica

Feed Status: UP
Listen in your browser - HTML5 player(in browser, HTML5)
Click here to listen with your own player(launches your MP3 player)

MROC 010700Z 11012KT 9999 FEW030 BKN090 22/18 A3000 NOSIG

MROC Flight Activity (Flightaware)

Listeners: 1 out of 1157 total

Central American Center (CENAMER Control): 124.100
Central American Center (CENAMER Control): 123.900
Panama Center: 133.000

MROC Del/Gnd/Twr
San Jose, Costa Rica

Feed Status: DOWN
Offline since: 2022-06-30 09:49:39 UTC

MROC 010700Z 11012KT 9999 FEW030 BKN090 22/18 A3000 NOSIG

Coco Clearance Delivery/Ground: 121.900
Coco Tower: 118.600

MROC Del/Gnd/Twr/App/Center/Misc (Archives)
San Jose, Costa Rica

Feed Status: UP
Listen in your browser - HTML5 player(in browser, HTML5)
Click here to listen with your own player(launches your MP3 player)

MROC 010700Z 11012KT 9999 FEW030 BKN090 22/18 A3000 NOSIG

MROC Flight Activity (Flightaware)

Listeners: 1 out of 1157 total

Coco Center (Control over CR Airspace): 119.600
Coco Clearance Delivery: 121.300
Coco Ground: 121.900
Coco Terminal Control: 120.500
Coco Tower: 118.600
Coco UNICOM: 126.800

MROC Gnd/Twr/App/Center
San Jose, Costa Rica

Feed Status: DOWN
Offline since: 2022-06-30 22:15:39 UTC

MROC 010700Z 11012KT 9999 FEW030 BKN090 22/18 A3000 NOSIG

Central American Center (CENAMER Control): 124.100
Coco Center (Control over CR Airspace): 119.600
Coco Ground: 121.900
Coco Terminal Control: 120.500
Coco Tower: 118.600

MRPV Ground/Tower (Archives)
San Jose, Costa Rica

Feed Status: UP
Listen in your browser - HTML5 player(in browser, HTML5)
Click here to listen with your own player(launches your MP3 player)


MRPV Flight Activity (Flightaware)

Listeners: 0 out of 1157 total

Pavas Ground: 121.700
Pavas Tower: 118.300

MSLP Gnd/Twr/App (Archives)
San Salvador, El Salvador

Feed Status: UP
Listen in your browser - HTML5 player(in browser, HTML5)
Click here to listen with your own player(launches your MP3 player)

MSLP 010650Z VRB02KT 9999 FEW027 SCT063 26/24 Q1011 A2987 NOSIG

MSLP Flight Activity (Flightaware)

Listeners: 0 out of 1157 total

Comalapa Ground: 121.700
Comalapa Tower: 118.000
Compalapa Approach: 119.900

MSLP Gnd/Twr/App/Center (Archives)
San Salvador, El Salvador

Feed Status: UP
Listen in your browser - HTML5 player(in browser, HTML5)
Click here to listen with your own player(launches your MP3 player)

MSLP 010650Z VRB02KT 9999 FEW027 SCT063 26/24 Q1011 A2987 NOSIG

MSLP Flight Activity (Flightaware)

Listeners: 0 out of 1157 total

Avianca Ops: 123.500
CCA: 119.300
CENAMER: 124.100
Comalapa Authorizations: 121.250
Comalapa Departure: 123.900
Comalapa Ground: 121.700
Comalapa Tower: 118.000
Compalapa Approach: 119.900
Ilopango Tower: 118.300
TACA Ops: 130.500

MSSS Tower
San Salvador, El Salvador

Feed Status: DOWN
Offline since: 2021-09-02 04:27:22 UTC


Ilopango Tower: 118.300